Location: Newark
(47.5833°N, 8.1500°E)
Time: 13:06:35
(UTC+00:00)

Vanguard 1 - Visible Passes

Search period start: 30 October 2020 00:00
Search period end: 09 November 2020 00:00
Orbit: 649 x 3833 km, 34.3° (Epoch: 29 October)

Date Brightness Start Highest point End Pass type
(mag) Time Alt. Az. Time Alt. Az. Time Alt. Az.
30 Oct 13.2 17:14:42 10° W 17:31:44 33° SW 17:43:04 10° SSE visible
31 Oct 13.4 17:36:34 10° W 17:51:54 28° SW 18:02:33 10° S visible
01 Nov 13.5 17:58:50 10° W 18:11:54 22° SW 18:21:31 10° S visible
02 Nov 13.8 18:21:56 10° W 18:31:47 16° SW 18:39:37 10° SSW visible
03 Nov 13.6 16:12:52 10° W 16:31:56 36° SW 16:45:39 10° SSE visible
03 Nov 13.9 18:47:32 10° WSW 18:51:32 11° WSW 18:55:10 10° SW visible
04 Nov 13.7 16:34:39 10° W 16:52:10 30° SW 17:05:09 10° SSE visible
05 Nov 13.9 16:56:48 10° W 17:12:16 25° SW 17:24:10 10° S visible
06 Nov 14.1 17:19:38 10° W 17:32:13 19° SW 17:42:26 10° SSW visible
07 Nov 14.2 17:44:01 10° W 17:52:02 13° WSW 17:59:04 10° SW visible
